ONEWEB-0024 (45137 NORAD) Tracking and Keplerian Element Data

This shows tracking and keplerian element data for the satellite.

Feedback or suggestion? Click here.




ElementValue
Catalog45137
NameONEWEB-0024
Epoch Orbit931
Epoch Day94.13200109
Epoch Year2020
RAAN145.421
Inclination87.5542
Eccentricity0.0023365
Argument of Perigee107.3184
Mean Anonmoly253.0601
Mean Motion14.87040664
Decay Rate-0.00323373
L11 45137U 20008G 20094.13200109 -.00323373 00000-0 -37627-1 0 9990
L22 45137 87.5542 145.4210 0023365 107.3184 253.0601 14.87040664 9313

Live tracking and technical data element details for ONEWEB-0024 (NORAD 45137). ONEWEB-0024 can be tracked NOW for your location showing map with azimuth and elevation plus other details from your city location.

Track the satellite on the map from your city or location and see movement details for azimuth, elevation, latitude, longitude, range, height, and movement on the map or in text.







IsCatalogInMostPopularTable: catalog: 45137, numindb: 12
Update: records affected: 1



GetName: 45137 ONEWEB-0024

Hit Count: updated at: Tue, 07 Apr 2020 15:25:47 GMT